| time (UTC) | temp F | wind direction | speed MPH | gust MPH | rain 1hr in | rain 24hr in | rain mn in | humidity % | barometer mb |
| 20260507024546 | 54 | 169 | 0.0 | 5.0 | 0.00 | 0.08 | 0.08 | 94 | 1007.7 |
| 20260507023041 | 54 | 168 | 0.0 | 5.0 | 0.00 | 0.08 | 0.08 | 94 | 1007.7 |
| 20260507021553 | 54 | 173 | 0.0 | 3.0 | 0.00 | 0.08 | 0.08 | 94 | 1007.7 |
| 20260507020040 | 55 | 175 | 0.0 | 5.0 | 0.00 | 0.08 | 0.08 | 94 | 1007.7 |
| 20260507014540 | 55 | 217 | 0.0 | 5.0 | 0.00 | 0.08 | 0.08 | 94 | 1007.8 |
| 20260507013039 | 55 | 164 | 0.0 | 5.0 | 0.00 | 0.08 | 0.08 | 94 | 1007.8 |
| 20260507011540 | 55 | 161 | 1.0 | 6.0 | 0.00 | 0.08 | 0.08 | 94 | 1008.0 |
| 20260507010044 | 55 | 209 | 0.0 | 3.0 | 0.00 | 0.08 | 0.08 | 94 | 1008.1 |
| 20260507004638 | 55 | 201 | 1.0 | 4.0 | 0.00 | 0.08 | 0.08 | 94 | 1008.1 |
| 20260507003037 | 55 | 304 | 1.0 | 6.0 | 0.00 | 0.08 | 0.08 | 94 | 1008.3 |
| 20260507001537 | 55 | 249 | 1.0 | 6.0 | 0.00 | 0.08 | 0.08 | 94 | 1008.3 |
| 20260507000037 | 55 | 182 | 1.0 | 7.0 | 0.00 | 0.08 | 0.08 | 94 | 1008.1 |
| 20260506234548 | 55 | 219 | 1.0 | 7.0 | 0.00 | 0.08 | 0.08 | 94 | 1007.9 |
| 20260506233036 | 55 | 249 | 0.0 | 6.0 | 0.00 | 0.08 | 0.08 | 94 | 1007.8 |
| 20260506231535 | 54 | 257 | 2.0 | 7.0 | 0.00 | 0.08 | 0.08 | 94 | 1008.0 |
| 20260506230034 | 54 | 296 | 2.0 | 8.0 | 0.00 | 0.08 | 0.08 | 94 | 1007.9 |
| 20260506224533 | 54 | 249 | 1.0 | 7.0 | 0.00 | 0.08 | 0.08 | 94 | 1007.7 |
| 20260506223031 | 54 | 141 | 0.0 | 7.0 | 0.00 | 0.08 | 0.08 | 94 | 1007.6 |
| 20260506221529 | 54 | 175 | 0.0 | 5.0 | 0.01 | 0.08 | 0.08 | 93 | 1007.6 |
| 20260506220035 | 54 | 171 | 0.0 | 5.0 | 0.03 | 0.08 | 0.08 | 93 | 1007.4 |
| 20260506214528 | 54 | 184 | 1.0 | 8.0 | 0.05 | 0.08 | 0.08 | 93 | 1007.3 |
| 20260506213030 | 54 | 170 | 1.0 | 12.0 | 0.07 | 0.08 | 0.08 | 93 | 1007.5 |
| 20260506211527 | 55 | 159 | 1.0 | 7.0 | 0.06 | 0.07 | 0.07 | 93 | 1007.5 |
| 20260506210028 | 55 | 165 | 1.0 | 9.0 | 0.04 | 0.05 | 0.05 | 92 | 1007.6 |
| 20260506204520 | 55 | 173 | 2.0 | 9.0 | 0.02 | 0.03 | 0.03 | 91 | 1007.8 |
| 20260506203024 | 55 | 171 | 2.0 | 9.0 | 0.00 | 0.01 | 0.01 | 91 | 1007.9 |
| 20260506201516 | 55 | 159 | 1.0 | 9.0 | 0.00 | 0.01 | 0.01 | 90 | 1007.7 |
| 20260506200014 | 56 | 181 | 1.0 | 11.0 | 0.00 | 0.01 | 0.01 | 90 | 1007.6 |
| 20260506194513 | 56 | 175 | 2.0 | 7.0 | 0.00 | 0.01 | 0.01 | 90 | 1008.0 |
| 20260506193012 | 56 | 180 | 2.0 | 9.0 | 0.01 | 0.01 | 0.01 | 90 | 1008.4 |
| 20260506191508 | 56 | 175 | 2.0 | 8.0 | 0.01 | 0.01 | 0.01 | 91 | 1008.4 |
| 20260506190008 | 56 | 173 | 3.0 | 9.0 | 0.01 | 0.01 | 0.01 | 91 | 1008.3 |
| 20260506184505 | 56 | 165 | 2.0 | 10.0 | 0.01 | 0.01 | 0.01 | 90 | 1008.6 |
| 20260506183002 | 56 | 208 | 1.0 | 6.0 | 0.00 | 0.00 | 0.00 | 90 | 1008.9 |
| 20260506181602 | 56 | 183 | 2.0 | 8.0 | 0.00 | 0.00 | 0.00 | 89 | 1009.2 |
| 20260506180100 | 56 | 207 | 2.0 | 6.0 | 0.00 | 0.00 | 0.00 | 88 | 1009.2 |
| 20260506174602 | 57 | 203 | 2.0 | 10.0 | 0.00 | 0.00 | 0.00 | 87 | 1009.8 |
| 20260506173112 | 58 | 188 | 1.0 | 10.0 | 0.00 | 0.00 | 0.00 | 86 | 1009.9 |
| 20260506171600 | 58 | 196 | 1.0 | 7.0 | 0.00 | 0.00 | 0.00 | 85 | 1009.7 |
| 20260506170054 | 58 | 176 | 1.0 | 12.0 | 0.00 | 0.00 | 0.00 | 85 | 1009.8 |
| 20260506164556 | 58 | 165 | 2.0 | 10.0 | 0.00 | 0.00 | 0.00 | 85 | 1010.2 |
| 20260506163054 | 58 | 141 | 3.0 | 9.0 | 0.00 | 0.00 | 0.00 | 84 | 1010.3 |
| 20260506161602 | 59 | 232 | 2.0 | 9.0 | 0.00 | 0.00 | 0.00 | 83 | 1010.4 |
| 20260506160048 | 60 | 194 | 2.0 | 11.0 | 0.00 | 0.00 | 0.00 | 84 | 1010.8 |
| 20260506154546 | 59 | 211 | 2.0 | 8.0 | 0.00 | 0.00 | 0.00 | 85 | 1011.1 |
| 20260506153045 | 58 | 171 | 1.0 | 6.0 | 0.00 | 0.00 | 0.00 | 85 | 1011.1 |
| 20260506151600 | 59 | 167 | 2.0 | 9.0 | 0.00 | 0.00 | 0.00 | 84 | 1011.2 |
| 20260506150044 | 60 | 188 | 2.0 | 9.0 | 0.00 | 0.00 | 0.00 | 82 | 1011.4 |
| 20260506144543 | 60 | 149 | 1.0 | 9.0 | 0.00 | 0.00 | 0.00 | 84 | 1011.2 |
| 20260506143047 | 60 | 198 | 2.0 | 7.0 | 0.00 | 0.00 | 0.00 | 85 | 1011.2 |
| 20260506141540 | 59 | 183 | 2.0 | 9.0 | 0.00 | 0.00 | 0.00 | 85 | 1011.4 |
| 20260506140039 | 58 | 285 | 2.0 | 9.0 | 0.00 | 0.00 | 0.00 | 86 | 1011.3 |
| 20260506134536 | 58 | 225 | 1.0 | 10.0 | 0.00 | 0.00 | 0.00 | 86 | 1011.4 |
| 20260506133040 | 58 | 239 | 1.0 | 11.0 | 0.00 | 0.00 | 0.00 | 85 | 1011.3 |
| 20260506131536 | 58 | 259 | 1.0 | 5.0 | 0.00 | 0.00 | 0.00 | 85 | 1011.2 |
| 20260506130033 | 58 | 149 | 2.0 | 10.0 | 0.00 | 0.00 | 0.00 | 86 | 1011.4 |
| 20260506124534 | 58 | 250 | 2.0 | 7.0 | 0.00 | 0.00 | 0.00 | 86 | 1011.5 |
| 20260506123030 | 57 | 159 | 2.0 | 7.0 | 0.00 | 0.00 | 0.00 | 87 | 1011.4 |
| 20260506121529 | 57 | 254 | 3.0 | 8.0 | 0.00 | 0.00 | 0.00 | 88 | 1011.5 |
| 20260506120026 | 56 | 164 | 1.0 | 7.0 | 0.00 | 0.00 | 0.00 | 89 | 1011.4 |
| 20260506114537 | 56 | 154 | 2.0 | 8.0 | 0.00 | 0.00 | 0.00 | 89 | 1011.5 |
| 20260506113023 | 55 | 170 | 2.0 | 12.0 | 0.00 | 0.00 | 0.00 | 89 | 1011.5 |
| 20260506111522 | 55 | 191 | 1.0 | 7.0 | 0.00 | 0.00 | 0.00 | 90 | 1011.4 |
| 20260506110022 | 55 | 163 | 2.0 | 10.0 | 0.00 | 0.00 | 0.00 | 91 | 1011.4 |
| 20260506104523 | 54 | 178 | 1.0 | 5.0 | 0.00 | 0.00 | 0.00 | 91 | 1011.5 |
| 20260506103020 | 54 | 187 | 1.0 | 6.0 | 0.00 | 0.00 | 0.00 | 91 | 1011.5 |
| 20260506101535 | 54 | 205 | 1.0 | 7.0 | 0.00 | 0.00 | 0.00 | 91 | 1011.3 |
| 20260506100019 | 54 | 186 | 2.0 | 8.0 | 0.00 | 0.00 | 0.00 | 91 | 1011.3 |
| 20260506094519 | 54 | 260 | 1.0 | 8.0 | 0.00 | 0.00 | 0.00 | 91 | 1011.2 |
| 20260506093017 | 54 | 219 | 2.0 | 8.0 | 0.00 | 0.00 | 0.00 | 91 | 1011.4 |
| 20260506091520 | 54 | 240 | 1.0 | 8.0 | 0.00 | 0.00 | 0.00 | 91 | 1011.3 |
| 20260506090014 | 55 | 161 | 1.0 | 11.0 | 0.00 | 0.00 | 0.00 | 91 | 1011.4 |
| 20260506084518 | 55 | 156 | 1.0 | 7.0 | 0.00 | 0.00 | 0.00 | 91 | 1011.7 |
| 20260506083010 | 55 | 165 | 1.0 | 6.0 | 0.00 | 0.00 | 0.00 | 91 | 1011.9 |
| 20260506081510 | 55 | 185 | 2.0 | 6.0 | 0.00 | 0.00 | 0.00 | 90 | 1011.9 |
| 20260506073008 | 55 | 256 | 1.0 | 7.0 | 0.00 | 0.00 | 0.00 | 90 | 1011.9 |
| 20260506071513 | 55 | 217 | 1.0 | 9.0 | 0.00 | 0.00 | 0.00 | 90 | 1011.8 |
| 20260506061503 | 55 | 247 | 1.0 | 7.0 | 0.00 | 0.00 | 0.00 | 90 | 1012.0 |
| 20260506044601 | 55 | 206 | 1.0 | 8.0 | 0.00 | 0.00 | 0.00 | 89 | 1012.3 |
| 20260506043054 | 55 | 170 | 2.0 | 10.0 | 0.00 | 0.00 | 0.00 | 89 | 1012.3 |
| 20260506041603 | 55 | 198 | 2.0 | 11.0 | 0.00 | 0.00 | 0.00 | 89 | 1012.2 |
| 20260506040051 | 56 | 155 | 1.0 | 8.0 | 0.00 | 0.00 | 0.00 | 89 | 1012.2 |
| 20260506034553 | 56 | 311 | 2.0 | 8.0 | 0.00 | 0.00 | 0.00 | 88 | 1012.1 |
| 20260506033049 | 56 | 200 | 2.0 | 8.0 | 0.00 | 0.00 | 0.00 | 88 | 1012.3 |
| 20260506031552 | 56 | 311 | 1.0 | 11.0 | 0.00 | 0.00 | 0.00 | 87 | 1012.1 |
| 20260506030048 | 56 | 273 | 2.0 | 14.0 | 0.00 | 0.00 | 0.00 | 87 | 1012.1 |